sat.trackr.live / text

‹ back to catalog

QIANFAN-52

NORAD 62253 · 2024-232S

PAYLOAD ACTIVE UNKNOWN

§ Identity

Operator
Country
PRC
Launch date
2024-12-05
Launch site
TAISC
Launch vehicle
Mass (kg)
RCS (m²)

External: N2YO · Heavens-Above · Gunter

§ Orbital elements

Epoch: 2026-09-22T21:48:23.958432Z

Period
106.59 min
Inclination
89.0161°
Eccentricity
0.0017252
Mean motion
13.51031483 rev/d
Perigee alt
1,055.6 km
Apogee alt
1,081.3 km
Semi-major
7,446.6 km
B*
1.1197e-4
RAAN
12.5863°
Arg perigee
93.0764°
Mean anomaly
267.2362°
Rev number
10,631

§ Raw data

QIANFAN-521 62253U 24232S   26265.90861063  .00000085  00000+0  11197-3 0  99992 62253  89.0161  12.5863 0017252  93.0764 267.2362 13.51031483106314

JSON: /api/v1/satellites/62253 · /tle

For live sub-satellite position, see the globe view (requires WebGL).

§ Visibility from observer

Set your observer location to see the next 7 days of passes ≥ 10°. The values pass through the URL so the page stays shareable.

No JS? Fill the form by hand. The geolocation button needs JavaScript.